Overview Statistics Trail Chart Weather Telemetry Raw packets
 

This is the latest recevied weather packets stored in our database for station/object WI0K. If no packets are shown the sender has not sent any weather packets the latest 10 day(s).

<< 71 72 73 74 75 76 77 >>
Time Temp. Humidity Pressure Rain* Wind** Luminosity Snow
1788164964 18.89° C 57% 1019.9 hPa 0 mm - 0 W/m² -
1788164663 18.89° C 58% 1020.1 hPa 0 mm - 0 W/m² -
1788164362 18.33° C 59% 1020.2 hPa 0 mm - 0 W/m² -
1788164061 18.89° C 59% 1020.1 hPa 0 mm - 0 W/m² -
1788163761 18.33° C 59% 1020.1 hPa 0 mm - 0 W/m² -
1788163460 18.33° C 59% 1020.1 hPa 0 mm - 0 W/m² -
1788163160 18.33° C 59% 1020.1 hPa 0 mm - 0 W/m² -
1788162859 18.33° C 59% 1020.2 hPa 0 mm - 0 W/m² -
1788162558 18.33° C 59% 1020.4 hPa 0 mm - 0 W/m² -
1788162258 18.33° C 59% 1020.3 hPa 0 mm - 0 W/m² -
1788161957 18.33° C 59% 1020.3 hPa 0 mm - 0 W/m² -
1788161656 18.33° C 59% 1020.2 hPa 0 mm - 0 W/m² -
1788161355 18.89° C 59% 1020.4 hPa 0 mm - 0 W/m² -
1788161055 18.89° C 59% 1020.5 hPa 0 mm - 0 W/m² -
1788160754 18.89° C 59% 1020.5 hPa 0 mm - 0 W/m² -
1788160453 18.89° C 59% 1020.7 hPa 0 mm - 0 W/m² -
1788160153 18.89° C 59% 1020.5 hPa 0 mm - 0 W/m² -
1788159852 18.89° C 60% 1020.4 hPa 0 mm - 0 W/m² -
1788159551 18.89° C 60% 1020.5 hPa 0 mm - 0 W/m² -
1788159251 18.33° C 65% 1020.7 hPa 0 mm - 0 W/m² -
1788158950 18.33° C 66% 1020.8 hPa 0 mm - 0 W/m² -
1788158649 18.89° C 68% 1021 hPa 0 mm - 0 W/m² -
1788158349 18.89° C 68% 1021.2 hPa 0 mm - 0 W/m² -
1788158048 18.89° C 67% 1021.2 hPa 0 mm - 0 W/m² -
1788157747 19.44° C 65% 1021.2 hPa 0 mm - 0 W/m² -

* Rain latest hour (hover to see other rain measurements)
** Current wind speed in m/s (hover to see current wind gust speed)